Printer-friendly version
Follow the MPC on Twitter Follow the MPC on Facebook The MPC blog
Minor Planet Center

MPEC 2009-F90 : 2009 FY29

The following Minor Planet Electronic Circular may be linked-to from your own Web pages, but must not otherwise be redistributed electronically.

A form allowing access to any MPEC is at the bottom of this page.


Read MPEC 2009-F89 Read MPEC 2009-F91


M.P.E.C. 2009-F90                                Issued 2009 Mar. 27, 15:33 UT

     The Minor Planet Electronic Circulars contain information on unusual
         minor planets and routine data on comets.  They are published
   on behalf of Commission 20 of the International Astronomical Union by the
          Minor Planet Center, Smithsonian Astrophysical Observatory,
                          Cambridge, MA 02138, U.S.A.

             Prepared using the Tamkin Foundation Computer Network

                              MPC@CFA.HARVARD.EDU
          URL http://www.cfa.harvard.edu/iau/mpc.html  ISSN 1523-6714

                                   2009 FY29

Observations:
     K09F29Y* C2009 03 26.49115 15 36 42.66 -01 53 59.1          19.7 V EF090G96
     K09F29Y  C2009 03 26.49942 15 36 44.02 -01 53 33.8          19.7 V EF090G96
     K09F29Y  C2009 03 26.50767 15 36 45.36 -01 53 08.2          19.6 V EF090G96
     K09F29Y  C2009 03 26.51564 15 36 46.65 -01 52 43.6          19.9 V EF090G96
     K09F29Y  C2009 03 27.05719 15 38 20.71 -01 24 45.1                 EF090J95
     K09F29Y  C2009 03 27.06027 15 38 21.34 -01 24 34.4                 EF090J95
     K09F29Y  C2009 03 27.06342 15 38 21.83 -01 24 24.7          20.0 R EF090J95
     K09F29Y  C2009 03 27.46412 15 39 30.58 -01 03 12.7          20.1 V EF090G96
     K09F29Y  C2009 03 27.47189 15 39 31.90 -01 02 48.2          20.0 V EF090G96
     K09F29Y tC2009 03 27.47929 15 39 33.14 -01 02 23.9          21.7 V EF090291
     K09F29Y  C2009 03 27.47952 15 39 33.18 -01 02 23.5          19.8 V EF090G96
     K09F29Y tC2009 03 27.48306 15 39 33.78 -01 02 11.2          20.0 V EF090291

Observer details:
291 LPL/Spacewatch II.  Observer J. V. Scotti.  1.8-m f/2.7 reflector + CCD.
G96 Mt. Lemmon Survey.  Observers E. Beshore, A. Boattini.  Measurers
    E. C. Beshore, A. Boattini, G. J. Garradd, A. R. Gibbs, A. D. Grauer,
    R. E. Hill, R. A. Kowalski, S. M. Larson, R. H. McNaught.  1.5-m reflector
    + CCD.
J95 Great Shefford.  Observer P. Birtwhistle.  0.40-m f/6.0 Schmidt-Cassegrain
    + CCD.

Orbital elements:
2009 FY29                                                Earth MOID = 0.2322 AU
Epoch 2009 June 18.0 TT = JDT 2455000.5                 MPC
M 358.53647              (2000.0)            P               Q
n   0.46998695     Peri.   96.15351     +0.18451273     +0.98235374
a   1.6383707      Node   184.81419     -0.98234670     +0.18335627
e   0.3811199      Incl.   21.38154     -0.03082222     +0.03689986
P   2.10           H   19.7           G   0.15           U   9
Residuals in seconds of arc
090326 G96  0.2+  0.0     090327 J95  0.9-  0.6-    090327 G96  0.0   0.7-
090326 G96  0.2+  0.1-    090327 J95  0.8+  0.4+    090327 291  0.1-  0.2-
090326 G96  0.1-  0.0     090327 J95  0.2+  0.2+    090327 G96  0.2+  0.3-
090326 G96  0.4-  0.1+    090327 G96  0.4-  0.5-    090327 291  0.1+  0.5+

Ephemeris:
2009 FY29                a,e,i = 1.64, 0.38, 21                  q = 1.0140
Date    TT    R. A. (2000) Decl.     Delta      r     Elong.  Phase     V
2009 03 20    15 18.82   -06 48.4    0.486    1.357   129.4    34.6    20.2
2009 03 30    15 46.96   +01 17.7    0.404    1.303   131.6    35.0    19.7
2009 04 09    16 18.95   +12 28.3    0.346    1.249   129.1    38.5    19.4
2009 04 19    16 56.25   +25 50.4    0.315    1.198   121.1    45.9    19.3
2009 04 29    17 40.19   +38 59.7    0.310    1.150   109.9    55.4    19.5
2009 05 09    18 31.74   +49 31.2    0.325    1.107    98.9    64.2    19.8
2009 05 19    19 30.23   +56 35.2    0.349    1.071    90.1    70.8    20.0
2009 05 29    20 32.38   +60 32.3    0.376    1.042    83.8    75.2    20.3
2009 06 08    21 33.65   +62 04.7    0.400    1.023    79.9    77.5    20.5
2009 06 18    22 30.20   +61 54.2    0.419    1.014    77.9    78.3    20.6
2009 06 28    23 19.87   +60 30.3    0.432    1.017    77.7    77.7    20.6
2009 07 08    00 02.27   +58 10.1    0.437    1.029    79.3    76.0    20.6
2009 07 18    00 37.61   +55 03.0    0.435    1.052    82.5    73.3    20.6

Sonia Keys                   (C) Copyright 2009 MPC           M.P.E.C. 2009-F90

Read MPEC 2009-F89 Read MPEC 2009-F91


MPEC number:

Enter an MPEC number in one of the following forms:

  • 1997-B01 (the full form)
  • J97B01 (the packed version of the full form)
  • B01 (the abbreviated form)

Valid HTML 4.01!